GEFSMA_prec_meanprecacc_024.txt.gz
Total_Precipitation_Accumulation
0.02 0.01 0.00 0.00 0.00 0.00 0.00 0.00 0.00 0.00 0.00 0.00 0.00 0.00 0.00 0.00 0.00 0.00 0.00 0.00 0.00 0.00 0.00 0.00 0.00 0.01 0.01 0.01 0.01 0.01 0.01 0.01 0.01 0.01 0.01 0.00 0.00 0.00 0.00 0.00 0.00 0.00 0.00
0.02 0.01 0.01 0.01 0.00 0.00 0.00 0.00 0.00 0.00 0.00 0.00 0.00 0.00 0.00 0.00 0.00 0.00 0.00 0.00 0.01 0.00 0.01 0.01 0.01 0.01 0.01 0.02 0.02 0.02 0.02 0.02 0.02 0.02 0.02 0.01 0.01 0.01 0.01 0.00 0.00 0.00 0.00
0.02 0.01 0.01 0.01 0.01 0.00 0.00 0.00 0.00 0.00 0.00 0.00 0.00 0.00 0.00 0.00 0.00 0.01 0.01 0.02 0.02 0.02 0.02 0.02 0.01 0.01 0.01 0.02 0.02 0.02 0.02 0.03 0.03 0.03 0.03 0.03 0.02 0.02 0.01 0.01 0.01 0.01 0.01
0.00 0.00 0.01 0.01 0.00 0.00 0.00 0.00 0.00 0.00 0.01 0.01 0.01 0.01 0.01 0.02 0.02 0.03 0.02 0.02 0.02 0.02 0.03 0.03 0.02 0.02 0.02 0.02 0.02 0.03 0.03 0.03 0.04 0.05 0.06 0.06 0.05 0.05 0.04 0.03 0.03 0.02 0.02
0.00 0.00 0.01 0.01 0.00 0.00 0.01 0.02 0.04 0.05 0.05 0.04 0.03 0.03 0.04 0.05 0.06 0.05 0.04 0.03 0.03 0.03 0.02 0.03 0.02 0.04 0.04 0.03 0.03 0.03 0.04 0.05 0.08 0.09 0.08 0.07 0.07 0.07 0.07 0.06 0.05 0.05 0.04
0.02 0.02 0.02 0.02 0.02 0.04 0.06 0.09 0.10 0.08 0.06 0.05 0.03 0.02 0.03 0.04 0.04 0.04 0.04 0.03 0.03 0.02 0.02 0.01 0.01 0.02 0.04 0.06 0.07 0.07 0.06 0.09 0.14 0.14 0.10 0.09 0.09 0.10 0.10 0.10 0.09 0.08 0.07
0.04 0.05 0.08 0.09 0.08 0.08 0.07 0.07 0.06 0.04 0.03 0.02 0.02 0.02 0.01 0.01 0.01 0.01 0.01 0.01 0.01 0.01 0.00 0.01 0.01 0.01 0.03 0.08 0.12 0.11 0.08 0.10 0.17 0.19 0.15 0.14 0.15 0.16 0.16 0.15 0.13 0.12 0.11
0.04 0.05 0.05 0.05 0.04 0.04 0.04 0.03 0.02 0.02 0.02 0.02 0.02 0.02 0.01 0.00 0.00 0.00 0.00 0.00 0.00 0.00 0.00 0.00 0.00 0.00 0.01 0.04 0.06 0.07 0.08 0.06 0.07 0.12 0.18 0.22 0.25 0.26 0.25 0.23 0.20 0.18 0.16
0.06 0.07 0.04 0.02 0.01 0.01 0.01 0.01 0.00 0.01 0.01 0.01 0.01 0.02 0.02 0.01 0.00 0.00 0.00 0.00 0.00 0.00 0.00 0.00 0.00 0.01 0.01 0.01 0.01 0.01 0.03 0.04 0.03 0.04 0.10 0.19 0.22 0.21 0.22 0.24 0.25 0.25 0.22
0.03 0.02 0.01 0.00 0.00 0.00 0.00 0.00 0.00 0.00 0.01 0.01 0.01 0.01 0.02 0.03 0.03 0.02 0.00 0.00 0.00 0.00 0.00 0.00 0.00 0.00 0.00 0.00 0.01 0.01 0.03 0.04 0.06 0.06 0.07 0.13 0.17 0.17 0.17 0.20 0.23 0.27 0.28
0.00 0.00 0.00 0.00 0.00 0.00 0.00 0.00 0.00 0.01 0.01 0.01 0.01 0.01 0.01 0.01 0.02 0.03 0.02 0.01 0.00 0.00 0.00 0.00 0.01 0.02 0.02 0.02 0.03 0.04 0.05 0.06 0.08 0.10 0.11 0.11 0.13 0.14 0.16 0.18 0.20 0.22 0.26
0.00 0.00 0.00 0.00 0.00 0.00 0.00 0.00 0.00 0.01 0.01 0.01 0.01 0.01 0.02 0.02 0.02 0.02 0.02 0.01 0.01 0.00 0.00 0.00 0.00 0.01 0.01 0.02 0.06 0.10 0.11 0.11 0.11 0.11 0.11 0.11 0.11 0.11 0.13 0.15 0.17 0.20 0.23
0.00 0.00 0.00 0.00 0.00 0.00 0.00 0.00 0.00 0.00 0.00 0.01 0.01 0.01 0.01 0.01 0.01 0.01 0.02 0.02 0.02 0.01 0.00 0.00 0.00 0.00 0.00 0.01 0.04 0.09 0.13 0.13 0.13 0.12 0.10 0.07 0.06 0.06 0.08 0.09 0.13 0.17 0.22
0.00 0.00 0.00 0.00 0.00 0.00 0.00 0.00 0.00 0.00 0.01 0.01 0.01 0.02 0.01 0.01 0.01 0.03 0.04 0.06 0.05 0.03 0.01 0.00 0.00 0.00 0.00 0.01 0.03 0.07 0.12 0.10 0.08 0.07 0.05 0.04 0.03 0.03 0.03 0.05 0.06 0.09 0.13
0.00 0.00 0.00 0.00 0.00 0.00 0.00 0.00 0.00 0.00 0.01 0.02 0.03 0.03 0.03 0.03 0.03 0.03 0.04 0.06 0.11 0.11 0.05 0.01 0.00 0.00 0.00 0.02 0.04 0.08 0.13 0.12 0.11 0.09 0.06 0.03 0.02 0.02 0.02 0.02 0.02 0.03 0.04
0.00 0.00 0.00 0.00 0.00 0.00 0.00 0.00 0.00 0.01 0.02 0.03 0.03 0.04 0.05 0.04 0.04 0.04 0.05 0.07 0.12 0.16 0.12 0.04 0.01 0.01 0.02 0.03 0.05 0.11 0.14 0.11 0.11 0.10 0.07 0.04 0.03 0.02 0.02 0.02 0.02 0.02 0.02
0.00 0.00 0.00 0.00 0.00 0.00 0.00 0.01 0.01 0.02 0.03 0.04 0.04 0.05 0.06 0.07 0.07 0.07 0.07 0.08 0.08 0.12 0.16 0.09 0.04 0.04 0.06 0.08 0.11 0.14 0.14 0.12 0.11 0.12 0.10 0.08 0.05 0.03 0.03 0.02 0.02 0.02 0.02
0.00 0.00 0.00 0.00 0.00 0.00 0.01 0.02 0.03 0.03 0.04 0.05 0.05 0.05 0.05 0.06 0.08 0.07 0.06 0.06 0.08 0.12 0.19 0.18 0.11 0.08 0.08 0.10 0.12 0.13 0.10 0.09 0.10 0.13 0.11 0.09 0.06 0.04 0.03 0.02 0.02 0.02 0.02
0.00 0.00 0.00 0.00 0.00 0.01 0.02 0.03 0.03 0.04 0.04 0.03 0.03 0.03 0.04 0.05 0.06 0.05 0.06 0.08 0.09 0.12 0.17 0.20 0.13 0.10 0.08 0.07 0.11 0.14 0.14 0.15 0.09 0.08 0.07 0.05 0.04 0.04 0.03 0.03 0.02 0.02 0.02
0.00 0.00 0.01 0.01 0.01 0.02 0.02 0.02 0.02 0.01 0.01 0.01 0.01 0.02 0.03 0.05 0.07 0.09 0.08 0.09 0.10 0.12 0.13 0.14 0.12 0.08 0.07 0.07 0.12 0.19 0.19 0.14 0.11 0.07 0.06 0.04 0.03 0.03 0.05 0.10 0.06 0.04 0.03
0.01 0.01 0.01 0.01 0.01 0.01 0.01 0.00 0.00 0.00 0.00 0.01 0.01 0.02 0.03 0.05 0.09 0.11 0.10 0.10 0.11 0.12 0.12 0.14 0.12 0.09 0.06 0.09 0.14 0.19 0.18 0.13 0.10 0.07 0.07 0.06 0.06 0.15 0.34 0.46 0.32 0.13 0.08
0.00 0.00 0.00 0.00 0.00 0.00 0.00 0.00 0.00 0.00 0.00 0.01 0.02 0.02 0.02 0.03 0.05 0.06 0.06 0.07 0.09 0.12 0.15 0.17 0.15 0.10 0.06 0.11 0.18 0.23 0.22 0.17 0.12 0.07 0.06 0.07 0.16 0.47 0.85 1.08 0.77 0.33 0.22
0.00 0.00 0.00 0.00 0.00 0.00 0.00 0.00 0.00 0.00 0.01 0.03 0.04 0.04 0.03 0.03 0.05 0.05 0.05 0.06 0.06 0.10 0.18 0.23 0.22 0.14 0.11 0.17 0.26 0.27 0.20 0.17 0.15 0.11 0.09 0.11 0.27 0.55 0.76 0.94 0.93 0.59 0.45
0.00 0.00 0.00 0.00 0.01 0.01 0.00 0.00 0.00 0.01 0.02 0.03 0.04 0.05 0.06 0.06 0.06 0.06 0.04 0.04 0.06 0.11 0.20 0.24 0.25 0.21 0.23 0.26 0.30 0.28 0.22 0.17 0.13 0.10 0.10 0.15 0.31 0.50 0.59 0.77 1.09 1.03 0.86
0.00 0.01 0.00 0.00 0.01 0.02 0.00 0.00 0.00 0.01 0.01 0.01 0.01 0.02 0.04 0.05 0.06 0.07 0.06 0.06 0.09 0.14 0.22 0.33 0.38 0.41 0.43 0.38 0.30 0.24 0.21 0.19 0.19 0.15 0.14 0.19 0.34 0.51 0.67 0.87 1.01 1.15 1.11
0.00 0.00 0.00 0.01 0.02 0.03 0.01 0.00 0.01 0.01 0.02 0.01 0.01 0.01 0.03 0.06 0.07 0.08 0.07 0.09 0.13 0.21 0.36 0.51 0.56 0.57 0.48 0.38 0.31 0.26 0.25 0.26 0.28 0.26 0.17 0.18 0.30 0.47 0.76 1.04 0.99 0.88 0.89

GEFSMA_prec_meanprecacc_030.txt.gz
Total_Precipitation_Accumulation
0.03 0.02 0.02 0.01 0.01 0.01 0.01 0.01 0.00 0.00 0.00 0.00 0.00 0.00 0.00 0.00 0.00 0.00 0.00 0.00 0.00 0.01 0.01 0.02 0.02 0.02 0.02 0.03 0.03 0.03 0.02 0.02 0.02 0.02 0.01 0.01 0.01 0.01 0.01 0.01 0.01 0.00 0.01
0.02 0.01 0.01 0.01 0.00 0.00 0.00 0.00 0.00 0.00 0.00 0.00 0.00 0.00 0.00 0.00 0.00 0.00 0.00 0.01 0.01 0.02 0.03 0.03 0.04 0.04 0.05 0.07 0.06 0.05 0.06 0.05 0.05 0.04 0.04 0.03 0.02 0.02 0.02 0.02 0.02 0.01 0.01
0.02 0.01 0.01 0.01 0.01 0.00 0.00 0.00 0.00 0.00 0.00 0.00 0.00 0.00 0.00 0.00 0.00 0.01 0.01 0.02 0.03 0.04 0.04 0.04 0.04 0.04 0.04 0.05 0.06 0.06 0.07 0.07 0.08 0.07 0.07 0.07 0.05 0.04 0.04 0.03 0.04 0.03 0.03
0.00 0.00 0.01 0.01 0.01 0.00 0.00 0.00 0.00 0.00 0.01 0.01 0.01 0.01 0.01 0.02 0.02 0.03 0.02 0.03 0.03 0.03 0.04 0.04 0.04 0.05 0.04 0.05 0.05 0.06 0.07 0.07 0.09 0.10 0.11 0.11 0.10 0.09 0.07 0.06 0.06 0.06 0.05
0.00 0.01 0.01 0.01 0.01 0.01 0.01 0.02 0.04 0.05 0.05 0.04 0.03 0.03 0.04 0.05 0.06 0.05 0.04 0.04 0.03 0.03 0.02 0.03 0.04 0.07 0.07 0.06 0.06 0.06 0.08 0.10 0.13 0.15 0.14 0.13 0.13 0.13 0.12 0.11 0.09 0.08 0.08
0.03 0.03 0.03 0.03 0.04 0.05 0.06 0.09 0.10 0.08 0.06 0.05 0.03 0.02 0.03 0.04 0.04 0.04 0.04 0.03 0.03 0.02 0.02 0.01 0.02 0.04 0.06 0.08 0.10 0.09 0.08 0.12 0.18 0.18 0.15 0.14 0.16 0.17 0.16 0.15 0.13 0.12 0.10
0.09 0.09 0.10 0.11 0.10 0.09 0.08 0.07 0.06 0.04 0.03 0.02 0.02 0.02 0.01 0.01 0.01 0.01 0.01 0.01 0.01 0.01 0.01 0.01 0.01 0.01 0.03 0.09 0.13 0.12 0.09 0.11 0.18 0.21 0.18 0.18 0.20 0.21 0.21 0.20 0.17 0.15 0.13
0.12 0.10 0.09 0.08 0.07 0.05 0.04 0.04 0.02 0.02 0.02 0.02 0.02 0.02 0.01 0.00 0.00 0.00 0.00 0.00 0.00 0.00 0.00 0.00 0.00 0.00 0.01 0.04 0.06 0.08 0.08 0.06 0.08 0.13 0.19 0.23 0.26 0.28 0.26 0.24 0.21 0.20 0.18
0.14 0.12 0.08 0.05 0.03 0.02 0.01 0.01 0.00 0.01 0.01 0.01 0.01 0.02 0.02 0.01 0.00 0.00 0.00 0.00 0.00 0.00 0.00 0.00 0.00 0.01 0.01 0.01 0.01 0.01 0.04 0.04 0.03 0.04 0.10 0.20 0.23 0.23 0.23 0.25 0.26 0.26 0.23
0.12 0.08 0.05 0.03 0.02 0.00 0.00 0.00 0.00 0.00 0.01 0.01 0.01 0.01 0.02 0.03 0.03 0.02 0.00 0.00 0.00 0.00 0.00 0.00 0.00 0.00 0.00 0.00 0.01 0.01 0.03 0.04 0.06 0.06 0.07 0.13 0.18 0.18 0.18 0.20 0.24 0.28 0.29
0.08 0.06 0.05 0.04 0.02 0.01 0.00 0.00 0.00 0.01 0.01 0.01 0.01 0.01 0.01 0.01 0.02 0.03 0.02 0.01 0.00 0.00 0.00 0.00 0.01 0.02 0.02 0.02 0.03 0.04 0.05 0.06 0.08 0.10 0.11 0.11 0.13 0.15 0.17 0.19 0.21 0.24 0.28
0.06 0.04 0.03 0.03 0.01 0.00 0.00 0.00 0.00 0.01 0.01 0.01 0.01 0.01 0.02 0.02 0.02 0.02 0.02 0.01 0.01 0.00 0.00 0.00 0.00 0.01 0.01 0.02 0.06 0.10 0.11 0.12 0.12 0.12 0.12 0.12 0.12 0.13 0.15 0.17 0.19 0.22 0.25
0.03 0.02 0.02 0.01 0.01 0.00 0.00 0.00 0.00 0.00 0.00 0.01 0.01 0.01 0.01 0.01 0.01 0.01 0.02 0.02 0.02 0.01 0.00 0.00 0.00 0.00 0.00 0.01 0.04 0.09 0.13 0.14 0.13 0.12 0.10 0.08 0.07 0.07 0.09 0.11 0.14 0.19 0.23
0.01 0.01 0.01 0.00 0.00 0.00 0.00 0.00 0.00 0.00 0.01 0.01 0.01 0.02 0.01 0.01 0.01 0.03 0.04 0.06 0.06 0.03 0.01 0.00 0.00 0.00 0.00 0.01 0.03 0.07 0.12 0.10 0.09 0.08 0.07 0.05 0.04 0.04 0.05 0.06 0.08 0.11 0.15
0.01 0.00 0.00 0.00 0.00 0.00 0.00 0.00 0.00 0.00 0.01 0.02 0.03 0.03 0.03 0.03 0.03 0.03 0.04 0.07 0.13 0.12 0.05 0.01 0.00 0.00 0.00 0.02 0.04 0.08 0.13 0.12 0.11 0.10 0.07 0.05 0.04 0.04 0.04 0.04 0.05 0.05 0.06
0.00 0.00 0.00 0.00 0.00 0.00 0.00 0.00 0.00 0.01 0.02 0.03 0.04 0.04 0.06 0.05 0.05 0.05 0.06 0.08 0.13 0.18 0.14 0.04 0.01 0.01 0.02 0.03 0.05 0.11 0.14 0.11 0.11 0.10 0.07 0.05 0.05 0.04 0.04 0.04 0.04 0.04 0.04
0.00 0.00 0.00 0.00 0.00 0.00 0.00 0.01 0.02 0.02 0.03 0.04 0.05 0.06 0.07 0.07 0.08 0.07 0.07 0.08 0.09 0.13 0.17 0.09 0.04 0.04 0.06 0.08 0.11 0.14 0.14 0.12 0.11 0.12 0.11 0.11 0.08 0.06 0.05 0.05 0.05 0.05 0.04
0.00 0.00 0.00 0.00 0.00 0.00 0.01 0.02 0.03 0.03 0.05 0.05 0.05 0.05 0.05 0.06 0.08 0.07 0.06 0.06 0.08 0.12 0.20 0.18 0.11 0.08 0.08 0.10 0.12 0.13 0.10 0.09 0.11 0.14 0.14 0.12 0.09 0.07 0.05 0.04 0.04 0.04 0.03
0.01 0.00 0.00 0.01 0.01 0.01 0.02 0.03 0.04 0.04 0.04 0.03 0.03 0.03 0.04 0.05 0.06 0.05 0.06 0.08 0.09 0.12 0.17 0.20 0.13 0.10 0.08 0.07 0.12 0.14 0.14 0.15 0.10 0.09 0.09 0.08 0.07 0.06 0.06 0.05 0.04 0.03 0.02
0.01 0.01 0.01 0.01 0.01 0.02 0.02 0.02 0.02 0.01 0.01 0.01 0.01 0.02 0.03 0.05 0.07 0.09 0.08 0.09 0.11 0.13 0.14 0.15 0.12 0.09 0.07 0.07 0.13 0.20 0.19 0.15 0.12 0.08 0.08 0.06 0.05 0.04 0.06 0.11 0.07 0.05 0.04
0.01 0.01 0.01 0.01 0.01 0.01 0.01 0.00 0.00 0.00 0.00 0.01 0.01 0.02 0.03 0.05 0.10 0.12 0.12 0.11 0.13 0.14 0.15 0.17 0.15 0.11 0.07 0.09 0.15 0.20 0.20 0.14 0.10 0.07 0.07 0.06 0.07 0.15 0.35 0.47 0.33 0.14 0.09
0.01 0.01 0.00 0.00 0.00 0.00 0.00 0.00 0.00 0.00 0.00 0.01 0.02 0.03 0.02 0.03 0.05 0.07 0.08 0.11 0.14 0.17 0.20 0.21 0.18 0.12 0.07 0.12 0.19 0.26 0.26 0.21 0.14 0.08 0.07 0.07 0.17 0.47 0.85 1.08 0.78 0.34 0.23
0.01 0.00 0.00 0.00 0.00 0.00 0.00 0.00 0.00 0.00 0.01 0.03 0.04 0.04 0.03 0.03 0.05 0.06 0.06 0.07 0.08 0.13 0.21 0.28 0.26 0.16 0.13 0.19 0.30 0.32 0.25 0.22 0.18 0.13 0.13 0.14 0.28 0.56 0.76 0.96 0.96 0.62 0.48
0.00 0.00 0.00 0.00 0.01 0.01 0.00 0.00 0.00 0.01 0.02 0.03 0.04 0.05 0.06 0.07 0.06 0.07 0.05 0.05 0.07 0.12 0.21 0.26 0.27 0.23 0.25 0.30 0.36 0.35 0.28 0.23 0.18 0.14 0.15 0.21 0.33 0.51 0.61 0.79 1.12 1.07 0.89
0.00 0.01 0.00 0.01 0.01 0.02 0.00 0.00 0.00 0.01 0.01 0.01 0.02 0.02 0.05 0.05 0.07 0.09 0.08 0.07 0.10 0.15 0.23 0.36 0.41 0.45 0.48 0.45 0.38 0.31 0.29 0.27 0.26 0.20 0.19 0.25 0.39 0.54 0.69 0.90 1.05 1.20 1.15
0.00 0.00 0.00 0.01 0.02 0.04 0.01 0.00 0.01 0.01 0.02 0.01 0.01 0.01 0.04 0.07 0.09 0.10 0.08 0.11 0.15 0.22 0.38 0.53 0.59 0.61 0.53 0.45 0.40 0.34 0.33 0.34 0.35 0.33 0.24 0.25 0.36 0.52 0.80 1.07 1.01 0.91 0.92

GEFSMA_prec_meanprecacc_036.txt.gz
Total_Precipitation_Accumulation
0.03 0.02 0.02 0.01 0.01 0.01 0.01 0.01 0.00 0.00 0.00 0.00 0.00 0.00 0.00 0.00 0.00 0.00 0.00 0.01 0.02 0.02 0.03 0.03 0.04 0.04 0.04 0.05 0.05 0.04 0.04 0.03 0.03 0.03 0.02 0.01 0.01 0.01 0.02 0.02 0.02 0.02 0.03
0.02 0.01 0.01 0.01 0.01 0.00 0.00 0.00 0.00 0.00 0.00 0.00 0.00 0.00 0.00 0.00 0.00 0.00 0.00 0.01 0.02 0.03 0.04 0.05 0.06 0.08 0.09 0.11 0.09 0.08 0.08 0.08 0.08 0.07 0.06 0.04 0.03 0.02 0.03 0.03 0.03 0.03 0.02
0.02 0.01 0.02 0.02 0.02 0.01 0.01 0.02 0.02 0.01 0.01 0.01 0.01 0.01 0.00 0.00 0.00 0.01 0.01 0.02 0.03 0.04 0.05 0.06 0.07 0.07 0.08 0.11 0.11 0.11 0.11 0.11 0.11 0.11 0.11 0.10 0.08 0.06 0.05 0.05 0.05 0.05 0.04
0.01 0.03 0.05 0.08 0.07 0.06 0.06 0.05 0.05 0.03 0.03 0.02 0.02 0.02 0.02 0.02 0.02 0.03 0.02 0.03 0.03 0.03 0.04 0.05 0.05 0.07 0.08 0.09 0.11 0.13 0.15 0.15 0.16 0.17 0.17 0.17 0.15 0.13 0.11 0.09 0.08 0.07 0.07
0.08 0.12 0.17 0.18 0.15 0.12 0.11 0.10 0.10 0.09 0.07 0.06 0.04 0.04 0.04 0.05 0.06 0.05 0.04 0.04 0.03 0.03 0.02 0.04 0.05 0.09 0.10 0.09 0.10 0.11 0.14 0.17 0.22 0.23 0.22 0.20 0.20 0.19 0.17 0.14 0.12 0.11 0.10
0.26 0.29 0.29 0.27 0.22 0.18 0.18 0.18 0.16 0.13 0.09 0.07 0.04 0.03 0.04 0.05 0.04 0.04 0.04 0.03 0.03 0.02 0.02 0.01 0.02 0.04 0.07 0.09 0.11 0.11 0.10 0.15 0.21 0.21 0.19 0.19 0.22 0.23 0.22 0.21 0.18 0.15 0.13
0.49 0.46 0.42 0.36 0.28 0.23 0.19 0.15 0.12 0.08 0.06 0.04 0.03 0.02 0.02 0.02 0.01 0.01 0.01 0.01 0.01 0.01 0.01 0.01 0.01 0.01 0.03 0.09 0.13 0.12 0.09 0.11 0.19 0.22 0.19 0.20 0.23 0.24 0.24 0.23 0.21 0.19 0.17
0.65 0.56 0.45 0.34 0.25 0.18 0.14 0.10 0.07 0.04 0.03 0.03 0.03 0.02 0.01 0.00 0.00 0.00 0.00 0.00 0.00 0.00 0.00 0.00 0.00 0.00 0.01 0.04 0.06 0.08 0.08 0.06 0.08 0.13 0.19 0.24 0.28 0.30 0.28 0.26 0.23 0.22 0.20
0.74 0.59 0.43 0.30 0.20 0.14 0.09 0.06 0.03 0.02 0.02 0.01 0.01 0.02 0.02 0.01 0.00 0.00 0.00 0.00 0.00 0.00 0.00 0.00 0.00 0.01 0.01 0.01 0.01 0.01 0.04 0.04 0.03 0.04 0.10 0.20 0.24 0.24 0.24 0.27 0.29 0.28 0.25
0.67 0.51 0.38 0.25 0.16 0.09 0.04 0.02 0.01 0.01 0.01 0.01 0.01 0.01 0.02 0.03 0.03 0.02 0.00 0.00 0.00 0.00 0.00 0.00 0.00 0.00 0.00 0.00 0.01 0.01 0.03 0.04 0.06 0.06 0.07 0.13 0.18 0.18 0.19 0.22 0.26 0.30 0.31
0.46 0.36 0.26 0.17 0.10 0.05 0.03 0.01 0.01 0.01 0.01 0.01 0.01 0.01 0.01 0.01 0.02 0.03 0.02 0.01 0.00 0.00 0.00 0.00 0.01 0.02 0.02 0.02 0.03 0.04 0.05 0.06 0.08 0.10 0.11 0.11 0.13 0.15 0.17 0.20 0.23 0.26 0.30
0.27 0.21 0.16 0.12 0.07 0.04 0.02 0.01 0.01 0.01 0.01 0.01 0.01 0.01 0.02 0.02 0.02 0.02 0.02 0.01 0.01 0.00 0.00 0.00 0.00 0.01 0.01 0.02 0.06 0.10 0.11 0.12 0.12 0.12 0.12 0.12 0.12 0.13 0.15 0.18 0.21 0.25 0.29
0.18 0.14 0.09 0.05 0.03 0.01 0.01 0.01 0.01 0.00 0.01 0.01 0.01 0.01 0.01 0.01 0.01 0.01 0.02 0.02 0.02 0.01 0.00 0.00 0.00 0.00 0.00 0.01 0.04 0.09 0.13 0.14 0.13 0.12 0.11 0.08 0.07 0.07 0.09 0.12 0.16 0.21 0.27
0.08 0.05 0.03 0.02 0.02 0.01 0.01 0.00 0.00 0.00 0.01 0.01 0.01 0.02 0.01 0.01 0.01 0.03 0.04 0.06 0.06 0.03 0.01 0.00 0.00 0.00 0.00 0.01 0.03 0.07 0.12 0.10 0.09 0.08 0.07 0.05 0.05 0.04 0.05 0.07 0.09 0.13 0.17
0.03 0.02 0.01 0.01 0.01 0.00 0.00 0.00 0.00 0.00 0.01 0.02 0.03 0.03 0.03 0.03 0.03 0.03 0.04 0.07 0.13 0.12 0.05 0.01 0.00 0.00 0.00 0.02 0.04 0.08 0.13 0.12 0.11 0.10 0.08 0.05 0.04 0.04 0.04 0.05 0.05 0.06 0.08
0.01 0.01 0.01 0.00 0.00 0.00 0.00 0.00 0.00 0.01 0.02 0.03 0.04 0.04 0.06 0.05 0.05 0.05 0.06 0.08 0.13 0.18 0.14 0.04 0.01 0.01 0.02 0.03 0.05 0.11 0.14 0.11 0.11 0.10 0.07 0.06 0.05 0.05 0.05 0.05 0.05 0.05 0.05
0.01 0.01 0.00 0.00 0.00 0.00 0.00 0.01 0.02 0.02 0.03 0.04 0.05 0.06 0.07 0.07 0.08 0.07 0.07 0.08 0.09 0.13 0.17 0.09 0.04 0.04 0.06 0.08 0.11 0.14 0.14 0.12 0.11 0.12 0.12 0.11 0.09 0.07 0.07 0.07 0.07 0.07 0.07
0.01 0.01 0.01 0.00 0.00 0.00 0.01 0.02 0.03 0.03 0.05 0.05 0.05 0.05 0.05 0.06 0.08 0.07 0.06 0.06 0.08 0.12 0.20 0.18 0.11 0.08 0.08 0.10 0.12 0.13 0.10 0.09 0.11 0.14 0.14 0.12 0.10 0.09 0.08 0.07 0.06 0.06 0.06
0.01 0.01 0.01 0.01 0.01 0.01 0.02 0.03 0.04 0.04 0.04 0.03 0.03 0.03 0.04 0.05 0.06 0.05 0.06 0.08 0.09 0.12 0.17 0.20 0.13 0.10 0.08 0.07 0.12 0.14 0.14 0.15 0.10 0.09 0.09 0.08 0.08 0.08 0.08 0.07 0.06 0.05 0.04
0.01 0.01 0.01 0.01 0.01 0.02 0.02 0.02 0.02 0.01 0.01 0.01 0.01 0.02 0.03 0.05 0.07 0.09 0.09 0.09 0.11 0.13 0.14 0.16 0.13 0.09 0.08 0.07 0.13 0.21 0.20 0.15 0.12 0.08 0.08 0.06 0.06 0.05 0.07 0.12 0.09 0.06 0.06
0.01 0.01 0.01 0.01 0.01 0.01 0.01 0.00 0.00 0.00 0.00 0.01 0.01 0.02 0.03 0.05 0.10 0.12 0.13 0.12 0.14 0.16 0.17 0.19 0.17 0.13 0.09 0.10 0.16 0.21 0.21 0.14 0.10 0.08 0.07 0.06 0.07 0.16 0.35 0.48 0.33 0.15 0.10
0.01 0.01 0.01 0.00 0.00 0.00 0.00 0.00 0.00 0.00 0.00 0.01 0.02 0.03 0.02 0.03 0.05 0.07 0.08 0.12 0.17 0.20 0.23 0.24 0.22 0.15 0.09 0.13 0.21 0.27 0.27 0.22 0.16 0.09 0.08 0.08 0.17 0.47 0.85 1.08 0.78 0.35 0.24
0.01 0.00 0.00 0.00 0.00 0.00 0.00 0.00 0.00 0.00 0.01 0.03 0.04 0.04 0.03 0.03 0.05 0.06 0.07 0.07 0.08 0.14 0.24 0.31 0.29 0.18 0.15 0.21 0.32 0.36 0.30 0.26 0.22 0.15 0.16 0.18 0.29 0.57 0.77 0.96 0.97 0.62 0.48
0.00 0.00 0.00 0.00 0.01 0.01 0.00 0.00 0.00 0.01 0.02 0.03 0.04 0.05 0.06 0.07 0.07 0.07 0.06 0.05 0.07 0.12 0.22 0.27 0.29 0.26 0.28 0.33 0.40 0.41 0.34 0.28 0.21 0.15 0.19 0.26 0.35 0.52 0.62 0.81 1.14 1.08 0.90
0.01 0.01 0.00 0.01 0.01 0.02 0.00 0.00 0.00 0.01 0.01 0.01 0.02 0.02 0.05 0.06 0.08 0.10 0.08 0.08 0.10 0.15 0.24 0.37 0.43 0.48 0.52 0.50 0.44 0.38 0.37 0.34 0.30 0.21 0.22 0.31 0.44 0.57 0.71 0.92 1.08 1.23 1.17
0.00 0.00 0.00 0.01 0.02 0.04 0.01 0.00 0.01 0.01 0.02 0.01 0.01 0.01 0.04 0.07 0.10 0.10 0.09 0.12 0.17 0.23 0.39 0.55 0.61 0.64 0.57 0.50 0.47 0.41 0.40 0.41 0.41 0.37 0.28 0.31 0.41 0.57 0.84 1.09 1.03 0.94 0.94

GEFSMA_prec_meanprecacc_042.txt.gz
Total_Precipitation_Accumulation
0.03 0.03 0.03 0.03 0.03 0.02 0.02 0.01 0.00 0.00 0.00 0.00 0.00 0.00 0.00 0.00 0.00 0.00 0.00 0.01 0.02 0.02 0.03 0.04 0.04 0.04 0.05 0.06 0.06 0.05 0.05 0.04 0.04 0.04 0.03 0.02 0.02 0.02 0.02 0.02 0.03 0.04 0.04
0.04 0.03 0.03 0.04 0.04 0.03 0.03 0.02 0.01 0.01 0.01 0.00 0.00 0.00 0.00 0.00 0.00 0.00 0.00 0.01 0.02 0.03 0.04 0.06 0.07 0.08 0.10 0.12 0.11 0.10 0.10 0.09 0.09 0.08 0.07 0.06 0.04 0.03 0.03 0.03 0.03 0.03 0.03
0.04 0.05 0.07 0.08 0.07 0.06 0.06 0.05 0.05 0.03 0.02 0.02 0.02 0.01 0.01 0.01 0.01 0.01 0.02 0.02 0.03 0.04 0.05 0.06 0.07 0.07 0.09 0.12 0.13 0.13 0.13 0.14 0.14 0.13 0.13 0.13 0.11 0.09 0.08 0.06 0.06 0.06 0.05
0.07 0.11 0.15 0.19 0.18 0.16 0.16 0.16 0.14 0.11 0.08 0.06 0.05 0.04 0.03 0.03 0.03 0.03 0.03 0.03 0.03 0.03 0.04 0.05 0.05 0.07 0.08 0.10 0.12 0.15 0.16 0.17 0.19 0.20 0.20 0.20 0.19 0.17 0.15 0.13 0.12 0.10 0.09
0.22 0.30 0.38 0.38 0.34 0.30 0.28 0.26 0.25 0.21 0.17 0.14 0.10 0.08 0.07 0.07 0.07 0.06 0.05 0.04 0.03 0.03 0.02 0.04 0.05 0.09 0.10 0.10 0.11 0.12 0.15 0.19 0.23 0.24 0.24 0.22 0.23 0.23 0.21 0.18 0.16 0.15 0.13
0.57 0.61 0.61 0.56 0.47 0.41 0.39 0.38 0.34 0.29 0.22 0.17 0.11 0.07 0.06 0.06 0.05 0.05 0.04 0.03 0.03 0.02 0.02 0.01 0.02 0.04 0.07 0.09 0.11 0.11 0.11 0.15 0.21 0.22 0.20 0.21 0.24 0.25 0.25 0.24 0.23 0.20 0.18
0.99 0.95 0.87 0.77 0.64 0.56 0.48 0.38 0.30 0.23 0.18 0.14 0.11 0.07 0.04 0.03 0.02 0.01 0.01 0.01 0.01 0.01 0.01 0.01 0.01 0.01 0.03 0.09 0.13 0.12 0.09 0.11 0.19 0.22 0.20 0.22 0.25 0.26 0.26 0.25 0.23 0.22 0.20
1.35 1.21 1.07 0.92 0.74 0.60 0.48 0.37 0.27 0.19 0.13 0.10 0.09 0.06 0.03 0.01 0.00 0.00 0.00 0.00 0.00 0.00 0.00 0.01 0.00 0.00 0.01 0.04 0.06 0.08 0.08 0.06 0.08 0.13 0.19 0.24 0.29 0.31 0.29 0.27 0.25 0.24 0.23
1.43 1.24 1.05 0.90 0.76 0.59 0.45 0.33 0.22 0.14 0.09 0.06 0.04 0.05 0.04 0.02 0.01 0.00 0.00 0.00 0.00 0.00 0.00 0.00 0.00 0.01 0.01 0.01 0.01 0.01 0.04 0.04 0.03 0.04 0.10 0.20 0.24 0.24 0.25 0.28 0.30 0.29 0.27
1.10 0.96 0.87 0.79 0.64 0.47 0.34 0.23 0.15 0.09 0.06 0.04 0.03 0.03 0.03 0.03 0.03 0.02 0.00 0.00 0.00 0.00 0.00 0.00 0.00 0.00 0.00 0.00 0.01 0.01 0.03 0.04 0.06 0.06 0.07 0.13 0.18 0.18 0.19 0.22 0.26 0.31 0.33
0.71 0.67 0.60 0.49 0.36 0.26 0.20 0.14 0.09 0.07 0.05 0.04 0.03 0.02 0.02 0.01 0.02 0.03 0.02 0.01 0.00 0.00 0.00 0.00 0.01 0.02 0.02 0.02 0.03 0.04 0.05 0.06 0.08 0.10 0.11 0.12 0.13 0.15 0.17 0.20 0.23 0.26 0.31
0.39 0.33 0.29 0.25 0.20 0.14 0.11 0.09 0.06 0.05 0.03 0.03 0.02 0.02 0.02 0.02 0.02 0.02 0.02 0.01 0.01 0.00 0.00 0.00 0.00 0.01 0.01 0.02 0.06 0.10 0.11 0.12 0.12 0.12 0.12 0.12 0.12 0.13 0.15 0.18 0.22 0.26 0.30
0.25 0.21 0.15 0.11 0.08 0.06 0.05 0.04 0.03 0.02 0.02 0.02 0.01 0.01 0.01 0.01 0.01 0.01 0.02 0.02 0.02 0.01 0.00 0.00 0.00 0.00 0.00 0.01 0.04 0.09 0.13 0.14 0.13 0.12 0.11 0.08 0.07 0.07 0.10 0.12 0.17 0.22 0.29
0.12 0.09 0.06 0.05 0.04 0.03 0.02 0.02 0.01 0.01 0.01 0.01 0.01 0.02 0.01 0.01 0.01 0.03 0.04 0.06 0.06 0.03 0.01 0.00 0.00 0.00 0.00 0.01 0.03 0.07 0.12 0.10 0.09 0.08 0.07 0.05 0.05 0.04 0.05 0.07 0.10 0.14 0.18
0.05 0.04 0.03 0.02 0.02 0.01 0.01 0.01 0.01 0.01 0.01 0.02 0.03 0.03 0.03 0.03 0.03 0.03 0.04 0.07 0.13 0.13 0.05 0.01 0.00 0.00 0.00 0.02 0.04 0.08 0.13 0.12 0.11 0.10 0.08 0.05 0.05 0.05 0.05 0.05 0.06 0.07 0.08
0.02 0.01 0.01 0.01 0.01 0.01 0.01 0.01 0.01 0.01 0.02 0.03 0.04 0.05 0.06 0.05 0.05 0.05 0.06 0.08 0.13 0.18 0.14 0.04 0.01 0.01 0.02 0.03 0.05 0.11 0.14 0.11 0.11 0.10 0.07 0.06 0.05 0.05 0.06 0.06 0.06 0.06 0.07
0.01 0.01 0.01 0.00 0.00 0.01 0.01 0.01 0.02 0.02 0.03 0.04 0.05 0.06 0.07 0.07 0.08 0.07 0.07 0.08 0.09 0.14 0.18 0.09 0.04 0.04 0.07 0.09 0.12 0.15 0.15 0.13 0.11 0.12 0.12 0.12 0.09 0.08 0.08 0.08 0.09 0.09 0.09
0.01 0.01 0.01 0.01 0.01 0.01 0.01 0.02 0.03 0.03 0.05 0.05 0.05 0.05 0.05 0.06 0.08 0.07 0.07 0.06 0.08 0.12 0.20 0.19 0.11 0.08 0.09 0.11 0.14 0.15 0.11 0.10 0.11 0.14 0.14 0.12 0.10 0.10 0.09 0.08 0.08 0.07 0.07
0.01 0.01 0.01 0.01 0.01 0.01 0.02 0.03 0.04 0.04 0.04 0.03 0.03 0.03 0.04 0.05 0.06 0.06 0.07 0.08 0.10 0.13 0.18 0.22 0.15 0.11 0.09 0.08 0.14 0.16 0.16 0.18 0.11 0.09 0.10 0.08 0.08 0.08 0.08 0.08 0.07 0.06 0.04
0.01 0.01 0.01 0.01 0.01 0.02 0.02 0.02 0.02 0.01 0.01 0.01 0.01 0.02 0.03 0.05 0.07 0.10 0.10 0.11 0.14 0.16 0.17 0.19 0.16 0.12 0.10 0.10 0.17 0.24 0.22 0.17 0.14 0.09 0.08 0.06 0.06 0.06 0.08 0.12 0.09 0.07 0.06
0.01 0.01 0.01 0.01 0.01 0.01 0.01 0.00 0.00 0.00 0.00 0.01 0.01 0.02 0.03 0.05 0.11 0.13 0.14 0.16 0.18 0.21 0.22 0.24 0.21 0.16 0.12 0.14 0.20 0.25 0.24 0.17 0.12 0.09 0.10 0.09 0.10 0.19 0.38 0.50 0.34 0.16 0.10
0.02 0.01 0.01 0.00 0.00 0.00 0.00 0.00 0.00 0.00 0.01 0.01 0.02 0.03 0.03 0.03 0.06 0.07 0.09 0.13 0.19 0.25 0.28 0.30 0.27 0.20 0.13 0.18 0.26 0.32 0.31 0.26 0.18 0.11 0.12 0.11 0.20 0.50 0.88 1.12 0.81 0.36 0.24
0.01 0.01 0.00 0.00 0.01 0.01 0.00 0.00 0.00 0.00 0.01 0.04 0.05 0.05 0.04 0.04 0.07 0.08 0.08 0.08 0.10 0.16 0.27 0.36 0.35 0.24 0.21 0.27 0.39 0.41 0.35 0.31 0.26 0.18 0.21 0.21 0.32 0.60 0.80 0.98 0.98 0.63 0.49
0.00 0.01 0.01 0.01 0.01 0.01 0.00 0.00 0.00 0.01 0.02 0.04 0.05 0.06 0.08 0.09 0.09 0.09 0.07 0.06 0.09 0.15 0.25 0.31 0.34 0.31 0.33 0.38 0.46 0.47 0.40 0.33 0.24 0.19 0.25 0.31 0.39 0.56 0.65 0.84 1.16 1.08 0.91
0.01 0.01 0.01 0.01 0.02 0.03 0.01 0.00 0.00 0.01 0.02 0.02 0.02 0.03 0.06 0.08 0.09 0.10 0.10 0.10 0.13 0.18 0.26 0.38 0.45 0.51 0.55 0.54 0.48 0.43 0.43 0.39 0.33 0.24 0.27 0.36 0.47 0.60 0.73 0.97 1.12 1.25 1.18
0.01 0.01 0.01 0.01 0.03 0.04 0.01 0.00 0.01 0.02 0.02 0.02 0.02 0.03 0.05 0.08 0.10 0.10 0.10 0.15 0.21 0.26 0.41 0.56 0.64 0.68 0.62 0.55 0.50 0.46 0.46 0.47 0.45 0.40 0.32 0.35 0.45 0.61 0.88 1.12 1.08 0.99 0.99

GEFSMA_prec_meanprecacc_048.txt.gz
Total_Precipitation_Accumulation
0.07 0.08 0.08 0.08 0.06 0.06 0.05 0.04 0.01 0.01 0.01 0.00 0.00 0.00 0.00 0.00 0.00 0.00 0.01 0.02 0.02 0.02 0.04 0.04 0.05 0.05 0.05 0.06 0.06 0.06 0.05 0.05 0.05 0.05 0.03 0.02 0.02 0.02 0.03 0.03 0.04 0.04 0.05
0.08 0.08 0.09 0.10 0.09 0.07 0.07 0.05 0.03 0.02 0.02 0.02 0.01 0.01 0.01 0.01 0.01 0.00 0.01 0.02 0.03 0.03 0.05 0.06 0.07 0.09 0.10 0.13 0.13 0.11 0.11 0.11 0.11 0.10 0.09 0.07 0.05 0.04 0.04 0.04 0.04 0.04 0.04
0.10 0.12 0.14 0.15 0.14 0.12 0.11 0.09 0.07 0.05 0.05 0.04 0.03 0.03 0.02 0.02 0.01 0.02 0.04 0.05 0.05 0.05 0.06 0.06 0.07 0.08 0.09 0.13 0.14 0.14 0.15 0.16 0.16 0.15 0.16 0.16 0.13 0.11 0.09 0.07 0.07 0.07 0.06
0.12 0.18 0.23 0.26 0.26 0.25 0.24 0.22 0.20 0.16 0.13 0.11 0.10 0.08 0.06 0.06 0.05 0.05 0.04 0.05 0.04 0.04 0.05 0.06 0.06 0.07 0.08 0.10 0.13 0.16 0.18 0.19 0.21 0.22 0.23 0.23 0.21 0.20 0.17 0.14 0.14 0.13 0.11
0.26 0.36 0.46 0.47 0.43 0.40 0.37 0.34 0.31 0.29 0.26 0.23 0.17 0.13 0.12 0.11 0.10 0.08 0.07 0.06 0.04 0.04 0.03 0.05 0.06 0.09 0.10 0.10 0.11 0.13 0.17 0.21 0.25 0.27 0.26 0.25 0.25 0.25 0.23 0.20 0.18 0.17 0.16
0.60 0.66 0.67 0.63 0.55 0.50 0.49 0.48 0.43 0.37 0.31 0.25 0.17 0.11 0.09 0.09 0.08 0.06 0.06 0.04 0.03 0.03 0.02 0.02 0.02 0.04 0.07 0.09 0.11 0.11 0.11 0.16 0.23 0.24 0.22 0.23 0.26 0.28 0.27 0.26 0.24 0.22 0.20
1.02 0.98 0.92 0.85 0.74 0.67 0.59 0.47 0.40 0.32 0.26 0.21 0.17 0.12 0.08 0.05 0.04 0.03 0.03 0.02 0.02 0.02 0.01 0.01 0.01 0.01 0.03 0.09 0.13 0.12 0.09 0.11 0.19 0.22 0.21 0.23 0.26 0.27 0.27 0.26 0.25 0.24 0.22
1.37 1.24 1.11 0.98 0.83 0.73 0.61 0.47 0.36 0.28 0.22 0.18 0.16 0.13 0.08 0.03 0.02 0.01 0.01 0.01 0.01 0.01 0.01 0.01 0.01 0.01 0.01 0.04 0.06 0.08 0.08 0.06 0.08 0.13 0.19 0.25 0.29 0.31 0.30 0.28 0.26 0.25 0.25
1.46 1.27 1.09 0.95 0.83 0.68 0.55 0.41 0.30 0.22 0.17 0.13 0.10 0.10 0.08 0.05 0.02 0.01 0.00 0.00 0.00 0.00 0.00 0.00 0.00 0.01 0.01 0.01 0.01 0.01 0.04 0.04 0.03 0.04 0.10 0.20 0.24 0.24 0.25 0.28 0.31 0.30 0.29
1.14 0.99 0.90 0.83 0.68 0.52 0.39 0.28 0.19 0.14 0.10 0.07 0.05 0.05 0.06 0.05 0.05 0.03 0.01 0.00 0.00 0.00 0.00 0.00 0.00 0.01 0.00 0.00 0.01 0.01 0.03 0.04 0.06 0.06 0.07 0.13 0.18 0.18 0.19 0.22 0.27 0.32 0.34
0.79 0.72 0.63 0.52 0.38 0.28 0.22 0.16 0.12 0.10 0.08 0.06 0.05 0.05 0.04 0.03 0.04 0.05 0.03 0.01 0.00 0.00 0.00 0.00 0.01 0.02 0.02 0.02 0.03 0.04 0.05 0.06 0.08 0.10 0.11 0.12 0.13 0.15 0.17 0.20 0.23 0.27 0.32
0.43 0.35 0.31 0.26 0.21 0.15 0.12 0.10 0.08 0.07 0.06 0.05 0.04 0.04 0.04 0.05 0.04 0.04 0.04 0.02 0.01 0.00 0.00 0.00 0.00 0.01 0.01 0.02 0.06 0.10 0.11 0.12 0.12 0.12 0.12 0.12 0.12 0.13 0.15 0.19 0.22 0.26 0.30
0.28 0.22 0.16 0.12 0.09 0.07 0.06 0.05 0.04 0.04 0.04 0.04 0.03 0.03 0.03 0.02 0.02 0.03 0.03 0.03 0.02 0.01 0.00 0.00 0.00 0.00 0.00 0.01 0.04 0.10 0.13 0.14 0.13 0.12 0.11 0.08 0.07 0.08 0.10 0.13 0.17 0.23 0.29
0.14 0.10 0.07 0.05 0.04 0.04 0.03 0.03 0.02 0.02 0.02 0.02 0.02 0.03 0.02 0.01 0.02 0.04 0.05 0.07 0.06 0.03 0.01 0.00 0.00 0.00 0.00 0.01 0.03 0.07 0.12 0.10 0.09 0.08 0.07 0.06 0.05 0.05 0.06 0.08 0.10 0.14 0.19
0.06 0.04 0.03 0.02 0.02 0.02 0.01 0.01 0.01 0.01 0.02 0.03 0.04 0.04 0.04 0.03 0.04 0.04 0.05 0.08 0.14 0.13 0.06 0.01 0.00 0.00 0.00 0.02 0.04 0.08 0.13 0.12 0.11 0.10 0.08 0.06 0.05 0.05 0.05 0.06 0.06 0.07 0.09
0.02 0.02 0.01 0.01 0.01 0.01 0.01 0.01 0.01 0.01 0.02 0.03 0.04 0.05 0.06 0.05 0.05 0.05 0.06 0.08 0.13 0.19 0.14 0.04 0.01 0.01 0.02 0.03 0.05 0.11 0.14 0.11 0.11 0.10 0.08 0.06 0.06 0.06 0.06 0.07 0.07 0.07 0.07
0.01 0.01 0.01 0.01 0.01 0.01 0.01 0.02 0.02 0.03 0.03 0.04 0.05 0.06 0.07 0.07 0.08 0.07 0.07 0.08 0.09 0.14 0.18 0.09 0.04 0.04 0.07 0.10 0.12 0.16 0.15 0.14 0.12 0.13 0.13 0.12 0.10 0.08 0.08 0.09 0.09 0.10 0.10
0.01 0.01 0.01 0.01 0.01 0.01 0.01 0.02 0.03 0.03 0.05 0.05 0.05 0.05 0.05 0.06 0.08 0.07 0.07 0.07 0.08 0.13 0.21 0.20 0.12 0.09 0.10 0.12 0.16 0.17 0.12 0.10 0.12 0.15 0.15 0.13 0.11 0.10 0.09 0.08 0.08 0.08 0.07
0.01 0.01 0.01 0.01 0.01 0.01 0.02 0.03 0.04 0.04 0.04 0.03 0.03 0.04 0.04 0.05 0.06 0.07 0.08 0.09 0.11 0.14 0.20 0.24 0.17 0.13 0.11 0.10 0.17 0.19 0.18 0.21 0.13 0.10 0.10 0.09 0.09 0.09 0.09 0.08 0.07 0.06 0.04
0.01 0.01 0.01 0.01 0.01 0.02 0.02 0.02 0.02 0.01 0.01 0.01 0.02 0.03 0.04 0.06 0.09 0.12 0.11 0.12 0.15 0.18 0.19 0.22 0.18 0.14 0.12 0.12 0.21 0.29 0.26 0.21 0.17 0.10 0.09 0.07 0.08 0.07 0.09 0.13 0.09 0.07 0.06
0.01 0.01 0.01 0.01 0.01 0.01 0.01 0.00 0.00 0.00 0.01 0.01 0.02 0.03 0.04 0.06 0.11 0.14 0.14 0.16 0.20 0.23 0.24 0.27 0.25 0.19 0.15 0.18 0.26 0.30 0.28 0.20 0.15 0.11 0.13 0.11 0.13 0.22 0.41 0.53 0.36 0.17 0.11
0.02 0.02 0.01 0.01 0.01 0.00 0.00 0.00 0.00 0.00 0.01 0.02 0.03 0.04 0.04 0.04 0.07 0.08 0.10 0.14 0.21 0.26 0.31 0.34 0.31 0.25 0.18 0.24 0.32 0.36 0.36 0.30 0.21 0.13 0.15 0.13 0.22 0.54 0.92 1.17 0.84 0.38 0.25
0.01 0.01 0.01 0.01 0.01 0.01 0.00 0.00 0.00 0.00 0.02 0.05 0.07 0.07 0.05 0.05 0.09 0.11 0.10 0.09 0.10 0.17 0.31 0.42 0.41 0.30 0.27 0.32 0.44 0.46 0.39 0.35 0.29 0.22 0.25 0.24 0.35 0.65 0.83 1.01 0.99 0.63 0.49
0.01 0.01 0.01 0.02 0.03 0.02 0.00 0.00 0.00 0.01 0.03 0.05 0.06 0.07 0.10 0.12 0.11 0.09 0.07 0.07 0.10 0.19 0.30 0.36 0.40 0.36 0.37 0.42 0.50 0.51 0.44 0.37 0.27 0.23 0.30 0.35 0.43 0.60 0.68 0.89 1.19 1.09 0.91
0.02 0.02 0.01 0.02 0.04 0.04 0.01 0.00 0.00 0.01 0.02 0.03 0.03 0.05 0.08 0.11 0.10 0.10 0.10 0.12 0.15 0.22 0.28 0.40 0.46 0.52 0.56 0.55 0.50 0.46 0.47 0.44 0.37 0.26 0.31 0.41 0.51 0.63 0.75 1.00 1.17 1.27 1.19
0.02 0.02 0.02 0.02 0.04 0.06 0.02 0.00 0.01 0.02 0.03 0.02 0.02 0.04 0.07 0.09 0.10 0.10 0.11 0.16 0.23 0.28 0.42 0.58 0.68 0.73 0.66 0.59 0.53 0.49 0.52 0.53 0.50 0.44 0.35 0.39 0.47 0.63 0.89 1.14 1.12 1.03 1.03